Regional Weather Roundup
Issued by NWS Portland, ME

Current Version | Previous Version | Text Only | Print | Product List | Glossary On
Versions: 1 2 3 4 5 6 7 8 9 10 11 12 13 14 15 16 17 18 19 20 21 22 23 24 25 26 27 28 29 30 31 32 33 34 35 36 37 38 39 40 41 42 43 44 45 46 47 48 49 50
000
ASUS41 KGYX 221610
RWRGYX
WEATHER ROUNDUP FOR MAINE AND NEW HAMPSHIRE
NATIONAL WEATHER SERVICE GRAY ME
1100 AM EST SAT NOV 22 2014

MEZ002-005-006-010-012-015-018-020-021-024-026-027-029-221700-
MAINE

CITY           SKY/WX    TMP DP  RH WIND       PRES   REMARKS
PORTLAND       CLOUDY    31  14  49 SW12      30.24F
SANFORD        CLOUDY    28   9  43 SW9       30.24F
BAR HARBOR     CLOUDY    30  18  59 SW15      30.22F WCI  19
WISCASSET      CLOUDY    30  15  53 SW14      30.23F WCI  19
ROCKLAND       PTSUNNY   32  18  55 SW13G20   30.21F
FRYEBURG       CLOUDY    27  13  55 SW9       30.18F
LEWISTONAUBURN CLOUDY    28  14  54 SW10      30.18F WCI  19
AUGUSTA        CLOUDY    25  12  58 S6        30.19F
WATERVILLE     CLOUDY    25  10  54 S9        30.14F
BANGOR         CLOUDY    26  11  52 S13       30.17F WCI  15
GREENVILLE       N/A     24  10  55 S12G20    29.99F WCI  13
MILLINOCKET    CLOUDY    23  12  62 S5        30.09F
HOULTON        CLOUDY    20   9  62 SW10G18   30.05F WCI   9
PRESQUE ISLE   CLOUDY    21   9  58 S12       29.97F WCI   9
FRENCHVILLE    CLOUDY    15   9  76 S13       29.89F WCI   1
CARIBOU        CLOUDY    20  10  65 S13G18    29.97F WCI   7
$$

NHZ002-005-008-009-011-012-014-221700-
NEW HAMPSHIRE

CITY           SKY/WX    TMP DP  RH WIND       PRES   REMARKS
PORTSMOUTH     CLOUDY    31  12  44 SW12      30.26F
ROCHESTER      CLOUDY    30  13  49 MISG      30.24F
NASHUA         CLOUDY    32  10  40 VRB3      30.30F
MANCHESTER     CLOUDY    32  11  41 SW9       30.26F
CONCORD        CLOUDY    30  11  45 SW10      30.25F
LACONIA        CLOUDY    27  12  54 SW9       30.20F
PLYMOUTH       FAIR      26  19  77 CALM      30.21F
BERLIN         MOSUNNY   30  12  47 SW7G18    30.08F
WHITEFIELD     PTSUNNY   30  12  47 W6        30.12F
JAFFREY        CLOUDY    26  11  52 SW10      30.24F WCI  16
LEBANON        CLOUDY    29  13  51 S13       30.20F WCI  19
MT WASHINGTON  PTSUNNY   12  -8  40 W71G81      N/A  WCI -17
$$

VTZ005-007-008-221700-
VERMONT

CITY           SKY/WX    TMP DP  RH WIND       PRES   REMARKS
ST JOHNSBURY     N/A     26  14  60 MISG      30.14F
MONTPELIER     PTSUNNY   27  13  55 S9        30.15F
BURLINGTON     PTSUNNY   30  12  47 S17G29    30.14F WCI  18
$$

MAZ007-012-024-CTZ003-RIZ002-NYZ038-NYZ072-221700-
SOUTHERN NEW ENGLAND AND NY

CITY           SKY/WX    TMP DP  RH WIND       PRES   REMARKS
BOSTON         PTSUNNY   35  11  36 SW17      30.32F
WORCESTER      CLOUDY    31   7  36 SW14      30.26F
NANTUCKET      SUNNY     43  23  45 W22       30.39F
PROVIDENCE     PTSUNNY   38  17  42 SW15G24   30.36F
HARTFORD       CLOUDY    37  11  34 SW13      30.33F
ALBANY         PTSUNNY   29  14  53 S10       30.31F WCI  20
NEW YORK CITY  MOSUNNY   35  11  36 SW18      30.43F
$$

ANZ081-ANZ082-ANZ150-NHZ014-MEZ023>029-221700-
COASTAL MARINE OBSERVATIONS

STATION/POSITION TIME  TEMP    WIND        PRES    WAVE
                       AIR SEA DIR/SP/G            HT/PER
                 (UTC) (F)     (DEG/KT/KT) (MB)    (FT/S)
MOUNT DESERT ROC 1600   35                 1022.3F
MATINICUS ROCK   1600          240/ 27/ 33 1022.6F
PORTLAND WX BUOY 1550   31 50  230/ 19/ 25 1023.5F   3/ 4
WELLS            1500   28 45  250/  7/ 11 1025.3F
ISLE OF SHOALS   1600   31     240/ 23/ 26 1024.1F
JEFFREYS LEDGE   1521      51                N/A     4/ 5
CASHES LEDGE BUO 1550   36 50  240/ 21/ 27 1024.6F   5/ 6
$$

.............KEY..............
   WCI - WIND CHILL
   TC  - TEMPERATURE IN CELSIUS
   VSB - VISIBILITY IN MILES
   HX  - HEAT INDEX
   FAIR- INDICATES FEW OR NO CLOUDS BELOW 12,000 FT, WITH NO
         SIGNIFICANT WEATHER AND/OR OBSTRUCTIONS TO VISIBILITY.




USA.gov is the U.S. government's official web portal to all federal, state and local government web resources and services.